Kuiper-00037

operational
NORAD ID: 63749 Int'l Des: 2025-088 Owner: KUIP Country: US Constellation: kuiper
LEOCIRCULAR

Über Kuiper-00037

Beschreibung wird geladen...

Live-Position

3D-Globus wird geladen...

Nächste Überflüge

Höhenverlauf

Altitude vs Time

uPlot chart will show altitude changes over time

Zweizeiliger Elementsatz

1 63749U 25088AB 25305.33454570 .00002096 00000-0 30350-3 0 9999
2 63749 51.9006 320.6474 0007879 320.2954 39.7431 14.79997063 29300
Epoch: 1. Nov. 2025 • Age: 30 hours

Aktueller Status

Höhe 637.4 km
Geschwindigkeit 7.54 km/s
Subsatellitenpunkt 36.54°N, 149.09°W
Startdatum 28. Apr. 2025
Alter 0.5 years
Typ internet

Technische Details

Klassifizierung Payload
Masse 490.00 kg
Trockenmasse 490.00 kg
Gesamtmasse 490.00 kg
Länge 1.80 m
Durchmesser 0.70 m
Spannweite 5.00 m
Form Box + 2 pan
Hersteller KUIP
Bus-Typ Kuiper
Phasenstatus In Orbit
Besitzer/Staat KUIP/US

Große Konstellationen

Loading constellations...